Kuchera_Ratio
0.0 3.8 10.2 4.6 2.7 2.8 3.4 10.1 10.6 3.8 0.0 1.0 1.5 0.0 0.0 0.0 0.0 0.0 0.0 0.0 0.0 0.0 0.0 0.0 0.0 0.0 0.0 0.0 0.0 0.0 0.0 0.0 0.0 0.0 0.0 0.0 0.0 0.0 0.0 0.0 0.0 0.0 0.0 0.0
3.3 9.0 1.8 0.0 0.9 1.3 2.6 9.5 10.8 3.5 0.0 1.5 1.9 1.4 0.0 0.0 0.0 0.0 0.0 0.0 0.0 0.0 0.0 0.0 0.0 0.0 0.0 0.0 0.0 0.0 0.0 0.0 0.0 0.0 0.0 0.0 0.0 0.0 0.0 0.0 0.0 0.0 0.0 0.0
8.8 2.3 0.0 0.0 2.5 4.9 7.2 10.0 10.8 10.4 3.3 2.2 3.3 3.6 0.0 0.0 0.0 0.0 0.0 0.0 0.0 0.0 0.0 0.0 0.0 0.0 0.0 0.0 0.0 0.0 0.0 0.0 0.0 0.0 0.0 0.0 0.0 0.0 0.0 0.0 0.0 0.0 0.0 0.0
5.0 0.0 0.8 1.7 3.1 4.2 9.8 3.2 4.1 6.6 10.5 12.9 4.4 13.3 5.6 1.5 1.6 0.0 0.3 0.0 0.0 0.0 0.0 0.0 0.0 0.0 0.0 0.0 0.0 0.0 0.0 0.0 0.0 0.0 0.0 0.0 0.0 0.0 0.0 0.0 0.0 0.0 0.0 0.0
6.2 4.6 4.7 6.6 4.5 2.3 6.9 1.7 4.7 4.4 9.3 12.4 10.4 13.3 6.0 5.7 3.1 4.8 2.5 0.8 0.1 0.0 0.0 0.0 0.0 0.0 0.0 0.0 0.0 0.0 0.0 0.0 0.0 0.0 0.0 0.0 0.0 0.0 0.0 0.0 0.0 0.0 0.0 0.0
5.4 0.0 2.9 3.3 1.3 2.2 0.5 4.5 7.1 9.0 12.0 16.4 11.7 13.9 12.4 12.3 8.9 5.9 3.2 2.1 0.7 0.0 0.0 0.0 0.0 0.0 0.0 0.0 0.0 0.0 0.0 0.0 0.0 0.0 0.0 0.0 0.0 0.0 0.0 0.0 0.0 0.0 0.0 0.0
9.8 4.7 0.0 0.0 5.0 3.1 5.2 11.7 16.1 16.6 16.8 17.2 11.5 14.2 13.3 7.8 6.8 5.2 5.8 3.9 1.7 0.0 0.0 0.0 0.0 0.0 0.0 0.0 0.0 0.0 0.0 0.0 0.0 0.0 0.0 0.0 0.0 0.0 0.0 0.0 0.0 0.0 0.0 0.0
13.8 13.5 6.9 0.5 6.1 7.6 7.6 8.9 15.7 18.2 18.0 17.3 11.1 14.5 12.2 5.0 2.0 2.1 2.6 0.6 0.0 0.4 0.0 0.0 0.0 0.0 0.0 0.0 0.0 0.0 0.0 0.0 0.0 0.0 0.0 0.0 0.0 0.0 0.0 0.0 0.0 0.0 0.0 0.0
14.9 14.1 5.8 1.9 1.7 5.3 9.9 12.9 5.8 15.0 16.5 18.0 15.0 12.9 8.4 4.5 6.0 4.6 2.5 2.1 3.5 1.9 1.7 1.3 0.0 0.0 0.0 0.0 0.0 0.0 0.0 0.0 0.0 0.0 0.0 0.0 0.0 0.0 0.0 0.0 0.0 0.0 0.0 0.0
13.3 15.1 8.5 6.5 1.8 1.2 7.6 2.2 15.8 15.3 18.7 18.5 16.1 15.8 13.6 11.2 9.3 5.8 6.5 5.3 4.1 3.5 3.8 1.8 1.3 1.4 0.0 0.0 0.0 0.0 0.0 0.0 0.0 0.0 0.0 0.0 0.0 0.0 0.0 0.0 0.0 0.0 0.0 0.0
7.1 12.2 12.4 10.0 10.7 9.0 10.1 12.4 8.0 10.5 13.3 19.2 18.9 17.1 7.9 9.9 8.4 8.4 6.4 4.7 5.0 4.7 4.2 3.9 2.4 1.9 0.4 0.0 0.0 0.0 0.0 0.0 0.0 0.0 0.0 0.0 0.0 0.0 0.0 0.0 0.0 0.0 0.0 0.0
4.9 11.3 14.8 12.8 8.6 1.8 6.5 11.3 10.1 16.6 16.5 15.0 16.2 16.3 6.3 7.0 6.5 5.5 6.0 5.1 3.8 3.5 3.5 4.0 3.6 3.7 3.5 2.9 1.6 0.0 0.0 0.0 0.0 0.0 0.0 0.0 0.0 0.0 0.0 0.0 0.0 0.0 0.0 0.0
7.2 14.6 14.9 14.8 12.2 9.1 12.2 7.8 5.2 9.8 12.6 17.2 17.3 16.3 5.1 5.4 5.8 6.0 7.2 6.7 6.3 4.2 4.9 5.3 5.3 6.0 6.1 4.9 4.2 3.1 0.7 0.1 0.0 0.0 0.0 0.0 0.0 0.0 0.0 0.0 0.0 0.0 0.0 0.0
3.1 13.0 14.8 15.3 14.1 13.1 14.1 11.2 7.8 10.0 17.2 16.4 16.2 14.5 12.7 9.5 8.2 7.1 7.1 7.3 9.8 8.7 7.2 6.5 7.1 7.4 6.9 5.9 6.2 5.0 3.4 1.6 0.0 0.0 0.0 0.0 0.0 0.0 0.0 0.0 0.0 0.0 0.0 0.0
7.6 13.8 14.3 13.8 13.2 12.1 12.5 12.0 9.2 12.5 10.7 16.3 14.3 14.2 10.6 11.1 7.8 7.9 8.6 9.1 9.5 8.2 10.4 8.9 8.8 8.5 8.3 8.0 7.6 6.4 5.4 4.7 0.9 0.2 0.0 0.0 0.0 0.0 0.0 0.0 0.0 0.0 0.0 0.0
6.9 13.9 14.0 13.3 12.5 8.9 12.3 7.9 8.2 9.9 12.1 12.2 14.9 14.4 6.4 5.4 5.1 8.8 8.0 8.7 9.9 11.2 9.8 10.8 8.7 9.0 9.2 9.2 8.9 6.7 7.9 5.8 3.7 2.7 2.4 0.0 0.0 0.0 0.0 0.0 0.0 0.0 0.0 0.0
10.8 14.7 14.9 13.8 13.0 13.5 13.3 9.5 10.1 11.3 11.3 8.0 13.8 10.0 8.6 9.0 7.3 7.4 6.1 6.4 8.0 9.4 9.8 10.2 8.8 9.4 9.5 9.6 8.6 9.1 7.3 5.5 5.8 6.4 4.0 2.6 1.0 0.0 0.0 0.0 0.0 0.0 0.0 0.0
12.1 13.8 15.4 14.1 13.9 15.3 9.8 8.0 8.1 9.4 8.8 7.8 8.9 10.0 6.3 4.7 5.1 4.6 3.6 5.4 5.4 6.9 8.8 9.8 9.3 9.1 8.8 9.2 8.6 8.6 8.0 7.6 6.2 6.6 5.5 3.6 1.7 1.8 0.2 0.0 0.0 0.0 0.0 0.0
8.1 12.4 15.3 15.7 15.9 12.4 9.6 8.3 9.9 9.7 7.0 4.4 5.9 5.4 4.1 4.5 2.6 3.6 1.0 2.8 4.5 5.7 6.1 7.1 7.5 7.8 8.1 8.1 8.5 8.5 8.5 7.7 6.9 4.8 5.7 3.8 3.9 3.2 0.9 0.1 0.0 0.0 0.8 0.0
9.2 11.8 16.0 15.9 17.0 15.1 5.9 4.7 2.8 2.4 11.5 0.0 1.3 2.8 5.2 6.6 8.6 2.9 0.9 3.1 5.0 5.7 5.9 6.4 7.3 6.9 7.4 7.7 7.4 7.2 7.6 7.7 7.8 6.4 4.6 4.3 3.9 2.1 2.2 2.3 0.0 1.5 1.2 1.0
13.5 14.1 14.7 15.7 14.9 11.7 4.4 3.7 2.1 12.7 3.5 0.0 0.0 0.9 3.9 6.6 2.2 0.5 1.5 3.6 4.5 5.3 5.7 6.4 7.1 7.2 6.9 7.4 8.0 7.5 7.6 7.8 7.9 8.2 7.2 6.4 5.6 4.5 5.1 3.6 3.8 3.8 3.4 3.4
10.6 12.3 13.2 14.5 15.2 12.6 4.0 5.3 7.8 0.0 0.0 0.0 0.0 0.0 0.2 0.0 0.6 1.5 2.2 2.8 3.8 4.4 5.0 5.6 6.3 7.5 6.7 7.1 7.6 7.6 7.2 7.7 8.0 7.8 7.0 6.4 6.0 5.4 4.3 3.4 2.8 2.8 2.5 1.9
12.0 7.2 8.7 9.6 3.7 0.3 0.7 0.0 0.0 0.0 0.0 0.0 0.0 0.0 0.0 0.0 0.5 0.9 1.4 2.4 3.4 4.1 4.8 5.3 6.0 6.9 6.7 6.8 7.1 7.6 7.6 8.5 8.6 8.2 7.0 6.4 5.8 5.0 4.2 3.6 3.2 2.7 2.6 2.5
6.7 7.1 9.8 7.5 0.0 0.0 0.0 0.0 0.0 0.0 0.0 0.0 0.0 0.0 0.0 0.0 0.0 0.5 1.4 2.3 3.0 4.0 4.4 5.4 5.6 6.1 6.7 6.2 6.0 6.1 6.5 6.9 7.8 7.7 6.7 6.1 5.7 5.3 5.0 4.8 4.4 4.3 4.3 4.6
4.5 5.6 5.8 4.9 0.0 0.0 0.0 0.0 0.0 0.0 0.0 0.0 0.0 0.0 0.0 0.0 0.0 0.1 1.2 2.3 3.1 4.1 5.0 5.3 5.9 6.1 6.1 6.3 6.4 6.0 6.5 6.7 7.4 7.4 7.0 6.7 6.2 5.4 5.0 5.1 5.5 5.2 3.8 3.0
3.6 1.2 3.0 0.0 0.0 0.0 0.0 0.0 0.0 0.0 0.0 0.0 0.0 0.0 0.0 0.0 0.0 0.0 0.0 0.0 1.7 3.5 4.5 4.7 5.3 5.5 5.9 6.3 5.9 6.1 6.3 6.4 6.7 7.4 7.1 6.7 6.7 6.7 7.0 5.1 4.1 3.7 3.7 4.3